Location: Poughquag
(41.6090°N, 73.6820°W)
Time: 12:49:46
(UTC-04:00)

Tiros 1 despin weight - Pass Details

Date: 05 June 2020
Orbit: 593 x 642 km, 48.2° (Epoch: 07 July)

Event Time Altitude Azimuth Distance (km) Brightness Sun altitude
Rises 15:50:13 0° 291° (WNW) 2,886 ? 48.6°
Reaches altitude 10° 15:52:52 10° 278° (W) 1,967 ? 48.2°
Maximum altitude 15:56:31 25° 223° (SW) 1,244 ? 47.5°
Drops below altitude 10° 16:00:08 10° 169° (SSE) 1,935 ? 46.8°
Sets 16:02:42 0° 155° (SSE) 2,826 ? 46.3°
